FW0812 Weather Reports


time (UTC)temp
C
wind
direction
speed
KPH
gust
KPH
rain 1hr
cm
rain 24hr
cm
rain mn
cm
humidity
%
barometer
mb
20260505021538 17 239 0.0 0.0 0.00 0.00 0.00 50 1011.0
20260505020041 17 232 0.0 0.0 0.00 0.00 0.00 49 1010.8
20260505014541 17 235 0.0 0.0 0.00 0.00 0.00 48 1010.6
20260505013035 17 236 0.0 0.0 0.00 0.00 0.00 47 1010.5
20260505011537 17 232 0.0 0.0 0.00 0.00 0.00 45 1010.1
20260505010034 18 249 0.0 0.0 0.00 0.00 0.00 42 1009.8
20260505004533 18 284 0.0 0.0 0.00 0.00 0.00 42 1009.4
20260505003032 19 284 0.0 0.0 0.00 0.00 0.00 40 1009.0
20260505001532 19 284 0.0 0.0 0.00 0.00 0.00 39 1008.7
20260505000046 20 284 0.0 0.0 0.00 0.00 0.00 37 1008.5
20260504234533 20 290 0.0 0.0 0.00 0.00 0.00 37 1008.1
20260504233031 21 281 0.0 0.0 0.00 0.00 0.00 35 1008.1
20260504231530 21 269 0.0 0.0 0.00 0.00 0.00 34 1007.9
20260504230030 21 293 0.0 0.0 0.00 0.00 0.00 34 1007.7
20260504224529 21 275 0.0 0.0 0.00 0.00 0.00 34 1007.5
20260504223029 21 265 0.0 0.0 0.00 0.00 0.00 34 1007.3
20260504221528 22 277 0.0 0.0 0.00 0.00 0.00 34 1007.3
20260504220042 22 263 0.0 0.0 0.00 0.00 0.00 33 1007.3
20260504214530 22 277 0.0 0.0 0.00 0.00 0.00 32 1007.4
20260504213026 22 265 0.0 0.0 0.00 0.00 0.00 32 1007.3
20260504211536 22 270 0.0 0.0 0.00 0.00 0.00 31 1007.3
20260504210026 22 227 0.0 0.0 0.00 0.00 0.00 32 1007.4
20260504204536 23 271 0.0 0.0 0.00 0.00 0.00 30 1007.3
20260504203024 22 282 0.0 0.0 0.00 0.00 0.00 31 1007.2
20260504201523 22 241 0.0 0.0 0.00 0.00 0.00 31 1007.3
20260504200023 22 272 0.0 0.0 0.00 0.00 0.00 30 1007.2
20260504194522 23 293 0.0 0.0 0.00 0.00 0.00 30 1007.3
20260504193021 22 290 0.0 0.0 0.00 0.00 0.00 31 1007.4
20260504191517 22 263 0.0 0.0 0.00 0.00 0.00 30 1007.5
20260504190015 21 328 0.0 0.0 0.00 0.00 0.00 33 1007.6
20260504184514 21 270 0.0 0.0 0.00 0.00 0.00 31 1007.8
20260504183013 21 124 0.0 0.0 0.00 0.00 0.00 33 1007.9
20260504181517 22 273 0.0 0.0 0.00 0.00 0.00 31 1008.1
20260504180011 21 265 0.0 0.0 0.00 0.00 0.00 31 1007.8
20260504174508 21 308 0.0 0.0 0.00 0.00 0.00 31 1007.8
20260504173005 21 229 0.0 0.0 0.00 0.00 0.00 33 1008.2
20260504171506 21 262 0.0 0.0 0.00 0.00 0.00 33 1008.2
20260504120104 8 236 0.0 0.0 0.00 0.00 0.00 65 1011.7
20260504081521 6 273 0.0 0.0 0.00 0.00 0.00 65 1011.6
20260504044551 3 276 0.0 0.0 0.00 0.00 0.00 68 1011.3
20260504043056 4 276 0.0 0.0 0.00 0.00 0.00 67 1011.3
20260504041547 4 276 0.0 0.0 0.00 0.00 0.00 67 1011.2
20260504040052 4 276 0.0 0.0 0.00 0.00 0.00 67 1011.2
20260504034552 5 276 0.0 0.0 0.00 0.00 0.00 66 1011.1
20260504033042 5 276 0.0 0.0 0.00 0.00 0.00 66 1011.1
20260504031542 5 276 0.0 0.0 0.00 0.00 0.00 66 1011.1
20260504030047 5 276 0.0 0.0 0.00 0.00 0.00 65 1011.1
20260504024539 6 276 0.0 0.0 0.00 0.00 0.00 63 1011.0
20260504023038 6 276 0.0 0.0 0.00 0.00 0.00 59 1011.1